Wind_Speed
102 97 93 87 83 82 81 80 79 78 77 76 73 71 69 67 67 66 66 66 63 62 64 67 70 69 68 66 62 58 54 51 50 51 51 51 49 48 47 46 44 44 44 44 45 46 46 45 44 43 43 43 42 42 43 43 42 42 41 41 42 44 45 45 45 43 41 40 40 40 41 41 42 43 43 43 43 44 45 46 48 49 49 49 50 50
103 98 91 87 86 86 85 85 83 82 81 79 75 73 71 68 67 67 67 66 65 62 63 66 68 69 70 70 69 65 59 53 52 52 52 52 51 51 51 51 50 47 46 45 47 48 47 47 46 46 46 45 45 44 44 45 45 44 43 42 41 43 45 47 46 45 43 43 43 43 44 45 46 47 46 45 45 45 46 48 49 51 52 52 53 52
104 96 90 89 90 90 89 88 86 86 84 80 77 74 72 70 68 68 66 67 68 65 63 65 66 67 69 70 71 71 66 59 57 55 54 54 53 52 53 53 52 50 49 48 48 48 48 47 47 48 48 48 47 47 47 47 47 46 46 44 42 42 44 46 46 46 46 46 46 46 47 48 49 50 50 48 48 49 50 51 52 52 53 54 54 54
101 93 91 92 92 92 91 90 88 88 85 81 78 75 73 72 70 68 67 68 71 68 65 65 64 65 67 68 69 71 70 65 60 58 57 56 55 55 55 54 53 52 52 51 50 51 50 49 49 50 50 50 50 50 49 48 47 47 47 46 44 44 45 47 48 48 48 48 48 48 49 50 51 51 51 51 52 54 55 54 53 53 54 55 56 55
101 96 95 96 95 94 93 92 90 89 86 81 79 76 75 74 72 71 70 70 72 71 67 65 63 62 65 66 67 69 70 66 62 60 58 58 58 58 57 56 55 55 55 54 53 53 52 51 51 51 51 51 52 52 51 50 48 48 48 48 48 48 48 49 50 51 51 51 51 52 52 53 53 53 54 55 57 58 57 56 55 55 55 56 57 57
104 101 100 99 98 97 95 93 91 90 87 83 80 78 76 75 74 73 72 72 74 73 70 67 62 60 63 65 65 67 68 66 63 61 59 59 59 59 59 58 58 59 58 57 56 56 55 54 53 52 51 51 52 53 52 50 50 50 50 51 51 51 52 52 52 53 53 54 55 56 57 57 57 58 59 59 60 59 58 58 58 58 58 58 59 59
107 104 103 102 100 98 96 94 93 91 89 85 82 80 78 78 77 76 75 73 74 73 71 68 64 61 62 63 63 65 66 66 65 62 60 61 60 59 61 61 61 61 61 60 59 59 59 58 56 55 54 53 52 52 52 51 52 53 53 54 54 54 55 55 55 55 55 56 58 58 58 59 59 60 60 61 60 60 60 61 61 61 60 61 62 62
108 106 104 102 100 98 97 95 93 92 90 88 85 83 81 81 81 78 76 74 73 73 70 68 67 64 61 62 63 63 64 64 65 63 61 62 63 63 64 64 63 64 63 61 60 59 60 60 59 59 58 56 55 54 54 54 54 54 54 55 55 56 57 58 58 57 57 57 59 60 60 61 61 61 61 61 61 61 61 62 63 63 63 65 66 66
107 106 103 101 100 99 96 95 94 94 93 91 88 85 83 84 83 80 78 76 74 72 69 67 69 66 61 62 64 63 62 62 63 65 64 63 65 66 66 66 66 66 64 63 61 60 60 61 61 60 60 59 58 58 57 57 56 55 55 54 55 56 57 58 58 59 59 59 60 62 63 63 63 63 62 61 61 61 62 62 64 65 66 67 68 69
108 107 105 104 104 101 98 97 97 97 96 94 91 89 87 87 86 83 80 77 75 72 69 68 70 67 61 62 65 63 61 63 64 65 66 64 65 68 68 67 67 67 66 65 63 62 62 62 62 61 61 61 61 61 60 59 58 57 57 56 55 56 56 56 57 58 59 59 59 62 64 65 65 65 64 63 62 63 63 64 66 68 69 70 70 70
111 110 109 109 108 104 102 102 101 101 99 97 95 93 91 90 88 85 81 79 78 74 70 68 70 69 62 60 65 64 62 65 67 67 67 66 66 68 68 68 69 69 67 66 65 64 63 63 63 62 62 63 63 62 62 61 60 59 58 58 58 57 57 57 57 57 58 58 58 60 63 65 66 66 65 65 64 65 65 66 67 68 70 71 72 72
114 113 113 111 109 107 107 106 105 104 102 100 98 95 92 91 89 87 84 82 79 73 69 69 70 71 63 58 62 67 66 67 68 69 70 68 67 68 68 69 70 70 69 67 66 66 65 64 64 64 64 65 64 64 64 63 62 61 61 61 60 60 60 60 59 58 59 59 59 60 61 63 65 67 67 67 67 67 67 67 67 67 68 70 72 73
116 115 114 112 110 109 109 108 107 105 102 100 98 94 92 91 90 88 86 83 78 73 71 69 71 71 64 57 60 68 71 69 68 70 71 70 68 68 69 70 70 70 70 69 68 67 67 66 65 66 66 66 66 66 66 65 64 64 63 63 63 63 63 62 61 61 61 61 61 62 62 62 64 66 68 68 68 68 68 68 68 68 68 69 71 73
117 116 116 114 113 112 111 110 107 103 99 96 94 92 91 91 90 88 86 82 78 75 74 72 72 72 66 60 60 65 72 72 70 71 72 71 71 70 70 70 71 71 71 71 70 70 69 68 67 67 67 68 68 68 68 67 66 66 65 66 66 66 66 65 64 64 64 64 64 65 65 65 65 66 68 68 69 69 69 69 69 70 69 69 71 73
118 117 115 113 112 111 110 107 104 101 97 96 95 95 95 94 92 90 88 84 80 79 78 77 75 70 66 63 61 62 69 73 73 73 72 71 71 71 71 70 72 73 73 72 72 72 71 70 69 69 69 70 70 70 70 69 69 68 68 68 68 69 68 68 68 67 68 68 68 67 67 68 68 68 69 70 70 71 71 71 72 72 72 71 72 73
122 119 115 112 111 109 107 106 104 102 101 100 100 100 99 97 94 92 90 87 85 83 81 78 73 68 66 66 64 64 67 72 74 74 74 72 70 70 71 71 72 73 74 74 74 73 73 73 72 72 71 72 72 72 72 72 71 71 70 70 71 71 71 70 70 71 71 71 71 71 70 70 70 71 72 72 73 74 74 74 75 75 75 74 75 76
123 120 117 113 112 111 109 108 107 105 104 103 102 101 99 96 95 94 92 90 88 86 82 78 72 70 70 69 67 67 68 71 73 74 76 76 74 71 71 72 73 73 74 75 76 76 75 75 74 74 74 74 74 74 74 74 73 73 73 73 73 73 73 73 73 73 73 74 74 74 74 73 73 74 74 75 76 77 77 77 78 78 78 78 78 79
122 120 116 114 113 112 112 111 109 108 108 107 105 102 100 99 98 97 94 92 91 87 83 80 76 74 73 70 68 68 70 72 73 75 76 77 77 75 73 73 73 73 74 74 76 76 76 77 77 76 76 75 75 76 76 76 75 75 75 75 76 76 76 76 75 75 75 75 76 76 76 76 76 76 77 78 79 79 80 80 81 82 82 82 82 82
124 121 118 116 114 113 113 113 113 112 112 110 106 104 102 102 101 98 96 93 91 88 84 81 79 76 73 70 69 70 72 73 74 77 76 76 77 77 76 75 74 73 74 75 76 77 77 77 77 78 78 77 77 77 77 77 77 77 77 77 78 78 78 78 78 78 78 78 78 78 78 79 79 79 80 81 81 82 83 83 84 85 85 86 86 86
125 123 121 118 116 117 116 116 115 113 112 109 107 105 104 103 101 98 96 94 92 90 86 83 82 78 73 70 71 73 74 75 76 78 78 76 77 77 78 78 77 76 75 76 77 77 77 77 77 77 78 78 78 78 79 79 79 79 79 79 79 80 80 80 81 81 81 81 81 81 81 81 81 82 82 83 84 85 85 86 86 87 88 88 89 90
125 124 122 120 119 120 119 118 116 112 109 107 105 105 104 103 101 98 96 94 93 91 88 85 83 78 74 73 74 76 77 77 78 79 79 78 78 77 78 79 79 79 78 77 77 77 78 78 78 78 78 78 78 79 79 80 80 80 80 80 80 81 82 83 83 83 83 84 84 84 85 85 84 85 85 86 87 87 88 88 89 90 90 91 92 93
125 125 124 122 121 120 119 117 115 112 110 108 106 104 103 103 102 100 98 95 93 91 89 86 83 78 77 77 77 77 79 78 77 78 79 79 79 79 80 80 80 81 80 79 78 77 77 78 79 80 81 81 81 80 80 80 80 80 80 80 81 81 82 83 84 85 86 87 87 88 89 89 89 89 89 89 90 90 91 91 92 92 93 94 95 96
126 126 125 124 122 120 119 118 115 113 112 112 111 109 108 107 106 103 100 96 94 93 92 91 87 81 79 79 77 76 78 78 77 78 79 80 81 81 82 82 82 82 81 81 80 79 79 79 79 80 80 81 82 82 82 82 81 81 81 81 82 82 83 84 85 86 87 89 90 91 92 93 93 93 93 93 93 94 94 94 94 95 96 97 98 99
127 127 126 126 125 122 121 119 117 116 115 115 114 112 110 108 105 102 100 98 97 96 95 95 91 83 80 81 78 75 78 79 79 80 82 84 84 84 84 83 83 83 82 82 82 81 81 81 80 80 80 80 80 81 81 82 82 82 83 83 83 84 85 85 86 87 88 90 91 93 94 95 96 96 97 97 97 97 97 97 98 98 99 100 100 101
125 126 125 125 126 125 124 122 121 119 117 115 112 110 108 105 103 102 102 102 101 98 97 97 92 83 81 82 79 77 79 81 82 84 86 87 88 87 87 86 85 84 84 83 83 83 83 82 82 82 82 81 81 81 81 82 82 83 83 84 85 85 86 87 87 88 89 90 91 93 95 96 97 98 98 99 100 100 100 101 101 102 102 103 104 104
117 122 124 123 124 125 123 121 118 115 112 110 107 105 105 104 104 104 104 106 103 99 99 99 93 86 83 81 78 77 79 81 85 89 91 91 92 91 90 89 87 87 86 85 85 84 84 84 83 83 83 83 83 83 83 84 84 84 85 85 86 86 87 88 88 89 89 90 91 92 94 95 96 97 98 99 100 101 102 102 103 104 105 106 107 107
112 118 122 122 121 120 118 116 113 111 108 107 105 103 104 105 106 106 108 108 104 100 102 100 94 89 85 82 80 80 82 83 86 92 94 93 93 93 92 91 90 89 89 87 86 85 85 85 85 85 85 85 86 86 86 87 87 87 87 88 88 89 89 90 90 90 91 91 92 92 93 94 95 96 97 98 100 101 102 102 103 104 105 106 107 108
111 115 119 120 119 117 115 115 115 114 112 110 108 108 107 108 109 109 109 108 104 104 104 100 94 91 86 85 86 86 85 85 87 91 94 93 92 93 94 94 93 91 90 89 88 87 86 86 87 87 87 88 89 89 89 89 89 90 90 90 91 91 92 92 92 93 93 94 94 94 94 95 95 96 97 98 99 100 101 101 102 103 104 105 106 107
108 110 111 113 117 118 117 116 116 116 115 113 112 112 112 112 112 112 110 108 107 109 106 99 96 94 88 87 90 87 85 86 87 89 92 93 93 95 95 95 93 91 90 89 89 89 89 89 90 90 90 91 91 91 92 92 92 92 93 93 93 94 94 95 95 95 96 96 96 97 97 97 97 98 98 99 100 100 101 101 102 102 103 104 105 106
107 104 101 101 109 116 118 117 116 116 116 116 115 114 114 114 114 114 113 112 112 112 107 99 98 96 90 90 92 89 87 86 85 89 94 96 98 99 98 96 92 90 90 89 90 90 91 92 92 93 93 93 93 93 94 94 95 95 95 95 95 96 96 97 97 98 98 98 99 99 99 100 100 101 101 101 102 102 103 103 103 103 104 104 105 105
110 104 98 95 101 110 117 118 117 115 115 115 116 115 115 115 116 115 114 112 111 110 104 100 100 98 94 94 93 90 90 89 88 92 97 100 103 103 101 96 93 91 91 91 92 93 93 93 93 93 94 94 94 95 95 96 96 96 97 97 98 98 98 99 99 100 100 101 101 101 102 102 103 103 103 104 104 105 105 105 106 106 106 106 106 107
115 109 102 97 99 105 113 118 119 118 118 118 117 117 117 117 115 114 111 108 108 107 105 103 102 97 95 96 95 92 94 95 95 96 98 102 106 106 101 96 94 94 94 94 95 95 94 94 94 94 95 95 95 96 96 97 97 97 97 98 99 99 100 100 101 101 102 102 102 103 103 104 104 105 106 106 107 107 108 109 109 109 110 110 111 111
120 117 111 106 103 104 108 112 116 119 122 123 120 117 115 114 112 111 109 107 108 108 107 105 101 96 96 99 99 98 99 99 98 97 99 104 108 106 100 97 96 96 97 97 97 96 96 96 96 96 96 96 97 98 98 98 98 98 99 99 100 101 101 102 103 103 104 104 105 105 106 106 107 107 108 109 109 110 111 111 112 113 113 114 115 115
124 122 119 115 111 108 108 109 114 120 122 121 118 115 113 113 112 111 110 109 110 110 109 105 100 98 100 101 101 100 100 99 99 99 100 103 105 102 99 97 97 98 99 100 100 99 98 98 98 99 99 99 99 100 100 100 100 100 100 101 102 103 104 104 105 106 107 107 107 108 108 109 109 110 110 111 111 112 113 114 114 115 116 116 117 118
119 122 122 121 120 116 114 111 115 120 118 112 111 114 116 116 115 115 113 112 112 111 108 105 101 100 101 101 101 102 102 101 101 100 100 101 101 100 99 99 99 100 101 101 101 101 101 101 101 102 102 102 102 101 101 101 101 101 102 102 103 105 105 106 107 108 108 109 109 110 110 110 111 111 112 113 114 114 115 116 116 117 117 118 119 120
106 112 114 118 122 123 122 119 117 117 113 108 110 116 118 116 113 112 110 107 107 107 106 104 101 100 101 101 101 101 102 102 101 100 100 100 101 101 101 101 102 102 102 102 102 102 103 103 104 104 105 104 104 104 103 103 103 104 104 105 105 106 107 108 108 109 110 110 111 111 112 112 113 114 114 115 116 116 117 117 118 119 119 120 120 121
97 101 103 108 115 119 122 121 117 116 113 111 111 112 110 107 107 107 105 103 104 107 109 107 104 102 102 101 101 101 102 102 101 99 99 101 102 103 103 103 103 103 103 103 104 104 105 106 106 106 106 106 106 106 106 106 107 107 108 108 108 109 109 110 110 111 112 112 113 114 114 115 116 117 117 118 119 119 120 120 121 121 122 122 122 122
96 99 100 102 105 110 115 115 114 116 114 111 108 103 99 99 104 111 112 109 107 107 107 105 102 102 102 102 101 102 103 102 99 96 97 101 103 104 104 104 104 104 104 105 105 105 106 106 106 106 107 107 107 108 108 109 109 110 110 111 111 112 112 112 113 113 114 115 116 117 118 118 119 120 121 122 122 122 123 123 124 124 125 125 125 125
95 99 101 101 102 105 108 109 111 112 108 103 100 98 98 100 105 115 119 113 106 104 103 100 98 98 99 100 101 103 103 99 95 95 99 103 104 103 103 103 103 103 105 106 106 106 106 106 106 107 107 108 109 110 110 111 111 112 113 114 114 114 115 115 116 116 117 118 119 120 121 122 123 124 124 125 125 125 126 126 127 127 127 127 127 127
95 99 101 102 104 105 105 105 107 105 100 96 93 94 98 100 103 113 119 111 102 101 100 97 97 98 98 100 102 103 101 97 95 99 103 105 105 104 103 104 104 104 105 105 106 106 106 107 107 107 108 109 110 111 112 113 114 115 116 117 118 118 118 119 119 120 121 122 122 123 124 124 125 126 126 126 126 126 126 127 126 126 126 126 126 125
94 98 100 101 101 101 101 101 101 97 92 89 90 94 100 104 105 111 111 101 94 95 97 96 96 98 99 100 102 101 99 98 100 103 104 105 105 105 105 105 105 105 104 105 105 106 106 107 107 108 109 110 112 113 114 116 117 118 118 119 120 121 121 121 121 121 122 122 123 123 124 124 124 125 125 125 124 124 124 123 123 123 122 122 121 121
98 96 100 103 103 100 98 99 99 94 88 86 88 93 101 106 106 103 97 86 80 86 94 97 98 97 97 98 99 98 97 99 100 101 102 104 105 106 106 106 106 105 105 106 106 106 107 108 109 110 111 112 113 114 116 117 118 119 119 118 119 119 119 118 118 119 119 119 119 120 120 120 120 120 120 120 119 119 118 118 117 117 116 116 115 114
108 100 98 102 105 103 101 101 98 92 86 84 85 87 92 96 95 93 89 82 77 80 88 94 97 98 97 96 96 95 95 97 98 98 99 102 104 105 106 106 105 105 105 106 107 108 109 109 110 110 111 112 113 114 114 114 114 113 113 112 112 112 112 112 112 112 112 112 113 113 113 114 114 114 115 114 114 114 113 112 112 111 111 110 110 109
118 111 104 102 104 104 102 100 95 89 85 84 84 85 88 92 91 88 85 81 78 79 80 83 89 95 97 97 97 97 97 98 98 98 99 100 101 102 103 103 102 102 103 104 105 106 106 106 106 107 108 109 109 108 107 106 105 104 103 103 103 103 103 104 104 104 104 104 104 105 106 107 108 109 109 109 109 108 108 107 107 106 106 105 104 102
119 118 114 109 105 103 100 96 91 88 86 86 86 86 88 90 90 88 86 83 82 82 81 80 83 89 92 94 97 98 99 100 99 98 98 98 97 97 97 97 97 98 100 101 102 101 102 102 102 102 102 101 101 99 98 97 95 94 94 93 93 93 93 93 93 93 94 95 96 98 100 102 103 103 103 102 102 101 100 99 99 99 98 98 97 95
117 120 122 117 110 105 101 98 95 92 91 91 91 91 91 91 91 91 91 90 89 88 88 87 86 87 89 90 92 95 97 99 98 96 95 94 93 93 92 92 93 95 97 99 99 99 99 98 97 95 93 92 90 88 86 85 84 83 83 83 84 84 84 84 84 84 85 86 88 90 92 93 94 94 94 94 94 93 92 92 91 91 90 90 89 88
115 119 123 122 117 113 109 105 101 99 97 97 97 96 94 93 93 92 92 93 93 93 93 91 90 90 91 91 91 92 93 94 93 93 93 94 94 94 93 93 93 94 96 97 96 95 94 91 89 86 84 82 79 76 75 74 73 73 74 75 75 76 77 77 77 77 77 77 78 79 80 81 82 83 84 85 85 86 86 86 86 85 85 84 84 83
114 114 117 118 117 116 113 109 104 101 99 97 96 96 96 94 92 91 92 93 94 95 95 95 94 94 93 92 91 90 89 88 89 90 93 95 95 94 93 93 93 93 93 92 91 89 87 84 80 77 74 72 71 69 68 67 67 68 68 69 70 70 70 70 70 69 69 69 70 70 71 72 73 74 76 77 78 79 80 81 81 82 82 81 81 81
121 117 114 112 111 112 111 108 103 99 96 93 91 91 93 93 92 91 90 90 91 93 94 94 93 92 91 90 90 90 90 89 88 89 92 94 94 92 91 90 90 90 89 87 85 83 82 79 74 69 67 68 69 67 65 64 65 65 66 66 65 65 64 63 63 63 64 64 65 65 66 67 68 70 71 72 73 75 76 77 78 79 80 80 80 80
126 122 118 114 111 108 105 103 101 97 92 90 88 86 84 84 85 85 85 87 90 92 93 93 94 94 94 94 95 94 92 90 90 91 92 93 91 88 86 86 86 86 85 83 82 82 82 79 72 64 62 64 65 64 64 64 64 63 63 63 62 61 60 60 60 61 62 62 63 64 64 65 65 66 67 68 69 71 72 73 75 76 78 79 80 81
122 121 121 118 113 106 101 99 100 97 94 93 92 88 83 81 81 82 84 88 92 94 96 98 100 100 99 98 96 94 91 91 91 92 92 91 88 84 82 82 83 84 84 84 82 81 81 78 73 66 63 62 61 60 62 62 62 62 61 61 61 61 60 60 60 60 60 61 61 61 62 62 62 63 63 64 65 67 69 70 72 73 75 77 78 80
Wind_Direction
229 229 230 231 233 235 236 237 238 238 239 239 240 241 241 242 243 243 243 243 241 240 240 239 239 240 241 243 243 244 244 244 245 247 249 251 253 253 253 255 256 252 249 248 249 251 255 256 257 258 258 259 262 264 264 264 265 266 267 267 269 272 272 273 275 278 280 281 280 279 281 283 285 286 286 288 290 292 294 295 295 297 299 299 298 298
228 228 229 230 233 234 235 235 236 237 238 239 239 241 242 242 243 243 244 244 242 240 240 239 239 240 241 243 244 245 245 245 246 247 248 250 252 253 255 257 258 256 253 251 251 254 256 257 258 259 259 260 262 264 264 264 263 264 265 265 268 271 274 275 276 276 277 278 280 279 279 280 282 283 284 286 287 289 291 293 294 296 299 299 299 299
228 227 229 231 233 234 235 236 236 237 237 238 239 240 242 243 243 244 245 245 244 240 240 240 239 240 241 243 244 246 246 246 247 247 248 249 250 251 254 256 258 258 257 255 255 256 258 259 260 261 262 262 263 264 264 264 263 264 265 265 266 269 273 275 276 276 277 278 279 279 278 279 280 281 283 285 287 289 292 293 294 296 298 299 299 299
228 228 229 232 233 234 235 236 237 238 238 238 240 241 242 243 244 244 244 245 246 242 240 240 239 240 242 243 244 245 246 246 247 248 249 250 251 250 251 253 256 257 257 257 258 258 259 261 262 264 265 266 266 264 263 263 263 265 266 266 266 268 270 272 273 273 274 276 277 277 277 278 279 280 283 285 288 290 293 293 293 295 297 298 298 298
228 228 229 230 232 234 236 237 238 239 239 239 240 242 243 244 245 245 244 245 247 245 242 240 239 241 243 243 244 245 245 246 246 247 248 249 250 251 251 251 252 254 255 256 257 258 259 260 262 265 267 266 265 264 263 264 265 266 267 267 266 267 268 269 271 272 272 273 273 274 275 276 278 281 283 285 287 290 291 291 292 294 295 297 297 298
228 227 228 229 230 232 234 236 238 239 240 240 240 242 243 244 245 245 245 246 247 247 245 243 241 241 243 243 243 245 245 245 245 245 247 247 248 250 251 250 250 251 253 255 256 257 258 259 261 264 266 265 264 264 264 265 266 267 268 267 266 266 267 269 270 272 273 273 274 274 275 276 278 280 283 285 287 289 289 290 291 292 294 296 297 296
227 227 228 229 229 231 232 234 236 238 239 240 240 241 242 243 244 244 245 246 248 249 248 247 244 242 244 244 243 244 245 245 245 244 245 247 247 247 248 248 248 248 250 253 255 257 258 260 261 263 265 265 265 265 266 266 267 267 267 267 267 267 268 268 270 271 273 274 275 275 275 276 277 279 281 283 286 288 289 290 290 291 293 295 295 296
227 228 229 229 230 231 233 234 236 237 238 239 239 240 241 242 243 244 244 245 247 248 249 249 248 244 244 246 244 243 244 245 246 245 243 245 246 245 245 246 246 247 248 251 254 256 257 259 261 263 265 266 266 267 268 268 268 269 269 268 267 267 268 269 270 272 273 274 275 276 277 277 277 278 280 282 284 287 288 289 290 291 292 293 294 295
228 229 230 231 231 232 234 235 237 237 238 238 238 239 240 241 243 243 243 244 246 247 248 249 249 246 244 247 247 244 243 243 245 246 243 243 245 246 246 246 246 247 249 251 253 254 256 258 260 262 265 266 267 267 268 269 269 270 270 269 268 268 269 270 271 273 274 274 275 276 277 277 278 278 280 282 284 285 287 288 289 290 290 291 292 293
227 229 230 231 231 231 232 234 236 237 238 238 238 238 238 240 241 241 242 244 244 245 246 247 249 248 246 247 249 247 244 242 242 245 245 243 242 245 246 247 247 248 249 251 252 253 255 257 260 262 264 265 265 266 267 269 270 270 270 271 270 270 271 271 272 272 273 274 275 276 276 277 277 278 279 281 282 283 285 286 287 288 289 289 290 291
225 227 228 229 230 230 230 232 233 235 236 237 237 237 238 239 241 241 241 242 242 243 245 246 249 250 247 247 251 250 246 244 241 242 244 244 242 243 245 246 247 248 248 250 252 253 254 256 258 260 260 261 262 264 266 267 268 269 270 270 271 271 272 272 272 272 272 274 274 275 275 276 276 277 277 278 280 281 283 284 285 286 287 288 289 289
224 225 226 228 229 229 230 231 231 232 234 235 236 236 238 240 241 242 241 241 242 243 244 246 249 250 248 246 249 251 248 245 244 242 242 243 244 244 244 245 247 248 249 250 252 254 255 255 257 258 259 259 261 263 264 266 267 268 269 269 270 271 271 271 272 272 272 273 274 274 274 274 275 276 276 277 278 280 282 283 285 286 287 287 287 288
224 225 226 227 228 229 230 231 232 233 234 235 236 237 238 240 242 243 244 244 244 244 244 245 247 250 249 244 244 249 251 248 247 246 243 242 243 245 246 247 247 249 250 251 252 253 255 256 256 257 258 259 260 261 262 264 265 267 268 268 269 270 270 271 271 271 272 272 273 273 274 274 274 274 275 276 277 279 281 283 285 286 286 287 287 286
224 226 227 228 228 229 230 231 232 233 235 237 239 240 241 242 243 244 245 246 246 245 245 244 245 247 247 243 242 247 252 252 250 249 247 245 244 244 246 249 250 250 250 251 252 253 254 255 255 256 256 257 258 259 260 262 264 265 266 266 267 268 269 270 270 270 270 271 271 272 273 274 274 274 275 276 277 279 281 282 284 285 286 286 286 286
226 227 228 229 230 231 232 232 233 234 234 235 237 238 239 240 241 242 243 244 244 244 243 242 243 245 246 245 243 244 250 254 253 251 250 248 246 246 246 248 250 252 252 252 252 253 254 254 254 254 255 255 256 258 259 261 262 263 264 265 266 267 267 268 269 269 269 269 270 271 272 273 274 274 275 276 277 278 280 281 282 284 285 285 285 285
225 226 228 230 232 233 234 235 235 235 234 235 235 237 238 239 239 241 242 242 243 243 243 243 244 245 246 246 245 244 247 252 255 255 255 253 250 249 247 247 248 250 252 253 254 254 255 255 255 255 254 255 256 257 259 261 262 263 264 264 265 266 266 267 267 267 267 268 269 270 271 271 272 273 274 275 276 277 278 280 281 282 283 284 284 284
225 226 226 228 230 232 233 234 235 235 236 236 236 237 239 241 241 242 242 243 244 244 244 245 244 244 244 245 246 247 247 250 253 256 258 257 254 252 250 249 248 249 251 253 254 255 255 256 256 256 256 255 256 257 259 261 262 263 264 265 265 265 266 266 266 266 267 267 268 269 270 270 271 272 273 274 275 276 278 279 280 281 282 282 283 283
226 226 227 228 230 231 232 233 233 234 235 235 235 236 237 239 240 241 241 242 243 244 244 245 244 243 243 244 246 247 247 248 251 254 256 258 258 256 253 251 250 250 251 252 254 254 255 256 256 257 257 257 257 258 260 261 262 263 264 265 265 265 266 266 266 266 267 267 267 268 269 270 271 272 273 274 275 276 277 278 279 280 281 282 282 283
225 225 226 226 229 231 232 233 233 234 234 235 235 235 236 237 239 239 240 241 242 243 244 244 244 244 244 245 245 246 246 247 250 252 254 256 258 259 258 256 254 252 251 252 253 254 255 256 256 257 258 259 259 260 261 262 263 263 264 264 265 266 266 267 267 267 267 267 268 268 269 270 271 272 273 274 275 276 277 277 278 279 280 281 282 282
225 225 225 225 227 229 230 232 233 234 235 236 236 236 237 238 239 240 241 241 242 243 242 243 243 244 244 244 245 245 246 247 249 252 253 254 256 259 260 260 259 257 254 252 252 254 255 256 257 258 259 259 260 261 262 262 263 263 264 264 265 266 266 267 268 268 269 269 270 270 270 270 271 272 272 273 274 275 275 276 277 278 279 280 281 282
225 225 225 225 226 228 229 231 232 233 235 236 237 238 239 240 241 242 242 243 244 245 245 245 245 245 245 245 244 245 246 246 248 251 252 253 254 256 258 259 261 260 259 257 255 254 255 256 257 258 259 260 261 262 262 263 263 264 264 264 265 266 267 268 269 269 270 271 272 272 272 272 273 273 273 274 274 275 275 276 277 278 279 280 280 281
225 226 225 225 225 227 229 231 232 232 233 234 235 236 237 239 239 240 241 241 243 244 245 245 244 244 244 244 244 245 246 246 247 249 251 253 254 255 256 257 259 260 261 261 261 259 258 257 257 258 259 260 261 262 262 263 264 265 265 266 266 267 267 268 270 271 271 272 273 274 274 275 275 275 275 275 275 276 276 276 277 278 279 280 280 281
226 226 226 226 225 226 228 230 231 231 232 233 234 234 235 236 237 238 239 239 240 241 242 242 241 240 241 242 243 244 247 248 248 249 251 252 254 255 256 257 258 260 261 262 263 263 262 261 261 260 261 261 262 262 263 264 265 266 266 267 267 268 268 269 270 270 271 271 272 273 274 274 275 275 276 276 276 276 277 277 278 278 279 280 280 281
226 227 227 226 226 226 227 229 230 231 231 233 234 235 236 237 238 239 240 240 240 240 241 242 241 240 241 243 244 245 248 249 250 250 250 252 253 254 256 257 258 259 261 262 262 262 263 263 263 263 263 263 263 264 264 265 266 266 267 267 268 268 269 269 270 270 270 270 271 272 272 273 274 275 275 276 276 277 277 278 278 279 280 280 281 281
229 228 227 227 227 226 227 228 229 230 232 233 235 236 237 237 238 239 239 240 240 240 242 243 243 241 242 244 246 247 248 250 251 251 251 251 252 253 254 256 257 259 260 260 261 261 261 262 263 264 264 265 265 265 266 266 267 267 268 268 268 268 269 269 270 270 270 270 271 271 272 272 273 274 275 276 276 277 278 278 279 279 280 281 281 282
230 230 229 229 229 229 229 230 232 233 234 235 236 236 237 238 238 239 240 241 241 241 242 243 243 241 241 243 245 246 247 249 251 252 252 252 252 252 253 254 256 257 258 259 259 260 261 262 263 264 265 266 267 268 268 268 268 268 268 268 269 269 269 269 269 270 270 271 271 271 272 273 273 274 275 276 277 277 278 279 279 280 281 281 282 282
230 231 230 230 230 231 231 232 233 233 234 234 234 235 236 238 239 239 241 242 242 242 243 244 244 243 243 244 244 244 245 246 249 251 252 252 253 254 254 254 255 256 257 258 259 260 261 263 264 265 266 267 268 268 268 269 269 269 269 269 269 269 270 270 270 270 270 271 271 272 272 273 274 275 275 276 277 278 278 279 280 280 281 281 282 282
230 232 231 231 230 230 230 230 230 229 230 230 231 232 233 235 236 238 239 241 242 242 242 243 244 243 243 243 243 242 243 245 247 251 253 254 255 256 256 256 256 256 257 258 260 261 262 264 265 266 267 267 268 268 268 268 268 269 269 270 270 270 270 271 271 271 272 272 272 273 273 274 274 275 276 276 277 277 278 279 279 280 280 281 281 282
230 232 233 233 232 231 230 230 229 229 229 230 230 231 231 232 233 235 236 237 238 239 239 239 240 240 240 241 242 241 242 244 247 252 255 256 256 257 257 257 257 258 259 260 261 262 263 264 265 266 266 267 267 268 268 268 269 269 269 269 269 270 271 271 272 272 273 273 274 274 275 275 275 276 276 276 277 277 278 278 279 279 280 280 281 281
228 229 230 231 233 233 231 230 230 230 230 230 231 232 233 234 234 235 236 236 237 238 239 238 240 241 240 241 242 243 243 245 247 252 254 256 256 257 257 258 259 260 261 261 262 262 263 264 265 265 266 266 267 267 268 268 268 268 269 269 269 270 270 271 272 272 273 274 274 275 276 276 277 277 277 278 278 278 278 279 279 279 280 280 280 281
226 226 227 229 231 233 233 231 231 230 230 231 232 232 234 235 236 237 238 239 240 241 242 241 241 242 242 243 244 244 245 245 246 249 252 254 256 257 258 259 260 261 261 262 263 263 264 264 265 265 266 266 267 267 267 268 268 269 270 271 271 271 271 271 272 272 273 273 274 275 275 276 277 278 278 278 279 279 279 280 280 280 280 280 281 281
226 226 226 227 230 233 234 234 233 232 232 232 232 233 234 235 237 239 240 241 242 243 243 242 242 242 243 243 243 242 243 244 245 247 250 253 256 257 259 260 261 261 262 263 263 264 265 265 265 265 265 266 266 267 267 268 269 270 271 271 272 272 273 273 273 273 273 274 274 275 275 276 277 277 278 278 279 279 280 280 280 281 281 282 282 282
226 227 227 227 230 233 235 235 235 235 235 234 233 234 236 237 238 240 240 241 242 243 243 243 243 242 242 243 243 244 245 247 248 249 250 253 256 258 260 261 261 262 263 263 264 264 264 265 265 265 265 266 266 267 268 268 269 270 271 271 272 272 272 273 273 274 274 275 275 276 276 277 277 277 278 278 279 279 279 280 281 281 282 282 283 283
227 228 228 229 231 233 236 237 237 237 237 236 236 237 238 238 239 239 239 240 241 242 242 243 243 242 242 244 245 247 247 248 250 250 251 254 256 259 260 260 260 261 262 263 263 264 264 264 265 265 266 266 267 267 268 269 270 270 271 271 271 272 272 272 273 274 274 275 275 276 276 277 277 278 278 278 279 279 280 280 281 281 282 282 283 283
230 230 231 231 233 234 236 237 239 239 239 239 240 240 239 238 239 239 239 240 241 243 244 245 244 244 245 245 246 247 248 248 249 251 252 254 255 257 257 257 258 260 261 262 263 263 264 265 265 266 266 267 268 268 269 270 270 270 270 270 271 271 271 272 272 273 273 274 274 275 276 276 277 277 277 278 278 279 279 280 280 280 281 281 282 282
229 230 231 232 233 234 235 236 239 240 240 239 240 241 241 240 241 241 241 243 244 245 246 245 245 245 246 246 247 248 249 249 250 251 252 253 254 255 255 256 258 259 260 261 262 263 264 265 266 266 267 268 268 269 269 269 270 270 270 270 270 270 271 271 272 272 273 274 274 275 275 276 276 277 277 278 278 279 279 279 280 280 280 280 281 281
227 228 229 230 231 233 234 236 238 240 240 239 240 241 243 244 244 243 242 242 242 243 243 243 243 243 244 245 246 247 248 249 250 251 252 254 254 255 255 256 257 259 260 261 262 263 264 265 266 267 268 269 269 269 270 270 270 270 270 270 270 271 271 272 272 273 274 275 275 276 276 277 277 277 278 278 279 279 280 280 280 280 280 281 281 281
226 227 228 228 229 231 232 234 236 238 239 240 241 242 244 246 246 244 241 239 239 241 242 242 242 243 244 245 246 247 248 249 250 252 253 253 254 254 255 256 257 259 260 261 262 263 265 266 267 268 269 269 270 270 270 271 271 272 272 272 272 272 273 273 274 274 275 275 276 276 277 277 278 278 279 279 279 280 280 280 280 280 280 280 280 281
226 227 228 228 229 230 231 232 234 236 237 239 240 241 243 245 246 246 243 240 240 242 244 244 244 245 245 246 246 247 248 249 250 251 251 252 252 253 255 257 258 259 260 262 263 264 266 267 268 269 270 270 271 272 272 272 273 273 273 274 274 274 275 275 275 276 276 276 277 277 278 278 278 279 279 279 279 279 280 280 280 280 280 280 280 280
225 227 229 230 231 232 232 232 234 235 236 236 237 239 241 242 244 246 245 243 242 243 244 244 245 245 245 246 246 247 248 249 249 249 250 252 253 254 255 257 258 259 261 263 264 266 267 268 269 270 271 272 273 273 274 274 274 275 275 275 276 276 276 277 277 278 278 278 279 279 279 279 279 279 279 279 279 279 280 280 280 280 280 280 280 280
224 226 228 230 231 232 233 233 234 235 235 235 237 239 241 242 243 247 249 249 247 247 245 244 244 245 246 247 248 249 249 249 249 249 250 252 254 255 256 257 258 260 261 263 264 266 267 268 269 270 271 272 273 274 274 275 276 276 277 277 278 278 278 279 279 279 280 280 280 280 280 279 279 279 279 279 279 279 279 279 279 279 279 279 280 280
223 225 227 229 230 231 232 232 234 234 234 236 238 240 243 244 246 250 253 255 254 252 250 246 245 246 247 248 249 250 250 249 249 249 251 253 254 256 257 259 260 261 262 264 265 266 267 268 270 271 272 273 274 275 275 276 276 277 277 277 278 278 279 279 279 280 280 279 279 279 279 278 278 278 278 278 278 278 278 277 277 278 278 278 278 278
222 224 226 228 229 230 230 232 234 235 236 238 241 244 247 250 252 253 255 256 257 258 256 253 251 250 250 250 250 250 250 250 250 250 251 253 255 256 258 260 261 263 264 265 266 267 268 269 270 272 273 274 275 275 275 276 276 277 277 278 278 279 279 279 280 279 279 279 279 278 278 278 278 277 277 277 277 277 277 277 277 277 277 277 277 277
221 223 224 225 227 228 230 233 235 237 240 243 246 248 251 254 255 255 255 256 257 258 260 259 258 257 257 256 255 254 253 253 253 253 253 254 256 257 259 261 262 264 265 266 266 267 268 270 271 272 273 274 275 275 276 277 278 278 279 279 280 280 280 280 279 279 279 279 279 278 278 277 277 277 276 276 276 276 276 276 276 276 276 276 276 276
223 224 225 225 226 228 230 232 234 237 240 244 247 249 252 253 254 254 255 255 255 256 258 258 259 259 259 259 259 258 258 257 256 256 256 257 259 260 261 262 264 265 266 266 267 268 269 270 272 273 275 276 277 278 279 280 281 281 281 281 281 280 280 280 280 279 279 279 278 278 277 277 277 276 276 276 276 276 276 276 276 276 276 276 276 277
228 227 227 227 227 228 230 231 233 236 240 243 245 247 249 251 251 253 254 255 256 257 257 257 257 258 259 260 260 261 261 261 261 261 262 262 262 263 263 263 264 265 266 267 268 269 271 273 275 277 279 280 281 282 283 283 283 282 282 282 281 281 281 280 280 280 279 279 278 278 277 277 277 277 277 277 278 278 278 278 278 278 278 278 278 277
231 231 231 230 230 231 233 234 236 239 242 244 246 247 247 248 250 251 253 254 255 256 256 256 257 257 259 261 262 263 264 266 266 267 267 266 266 266 266 266 266 267 268 270 271 273 275 277 279 281 283 284 285 285 284 284 283 282 282 281 280 280 280 280 281 281 281 281 281 281 281 280 280 280 280 280 280 280 280 280 280 280 280 280 279 279
230 232 233 233 233 234 235 236 237 239 241 243 245 246 246 247 249 251 252 253 254 255 256 257 258 259 260 262 264 266 268 270 271 271 271 270 270 269 270 271 272 273 275 276 278 279 280 280 282 284 286 288 288 287 285 284 284 283 282 280 280 279 279 280 281 282 282 283 283 284 284 285 285 285 285 285 285 285 285 284 284 283 282 282 281 281
228 230 231 232 232 233 235 235 236 238 240 241 242 244 246 247 248 249 250 252 254 255 257 258 259 260 261 263 265 267 269 271 272 273 274 274 275 276 278 279 279 280 281 282 283 283 282 282 284 285 289 292 292 289 286 285 285 285 284 282 281 280 280 280 281 281 282 283 284 285 287 288 289 290 290 291 290 290 290 289 289 288 287 286 284 283
227 229 231 231 232 233 235 235 235 236 238 239 240 242 246 247 248 249 250 252 253 254 255 257 259 261 263 265 267 268 269 270 272 273 274 276 279 282 283 283 283 283 284 284 284 284 284 285 285 285 291 297 295 289 286 285 285 286 285 284 283 281 280 280 280 280 281 283 285 287 289 291 292 293 294 294 294 293 293 292 292 291 290 289 288 287
228 230 232 233 234 234 235 234 234 234 235 237 239 241 244 246 247 248 248 249 250 252 255 258 261 263 264 266 267 268 269 270 272 273 276 279 282 283 283 283 283 283 284 284 285 286 286 287 286 287 293 299 296 288 285 284 284 285 285 283 282 282 281 281 281 282 284 286 288 290 292 294 295 296 297 298 298 298 297 296 295 294 293 291 290 289
Height
10699 10708 10719 10733 10743 10747 10750 10752 10754 10758 10758 10761 10767 10770 10775 10780 10784 10789 10791 10793 10801 10808 10811 10815 10819 10822 10824 10828 10833 10836 10842 10847 10849 10851 10853 10856 10859 10862 10864 10866 10868 10871 10873 10876 10877 10876 10877 10879 10880 10881 10881 10882 10883 10883 10884 10885 10885 10886 10886 10887 10887 10887 10887 10886 10886 10886 10886 10886 10886 10885 10884 10884 10883 10881 10880 10880 10880 10879 10879 10878 10876 10875 10874 10872 10871 10869
10691 10704 10722 10734 10735 10735 10738 10740 10744 10748 10749 10754 10762 10765 10769 10775 10779 10782 10787 10790 10795 10801 10805 10808 10813 10818 10820 10822 10826 10832 10839 10844 10844 10846 10849 10851 10855 10857 10859 10861 10862 10866 10869 10871 10872 10872 10873 10875 10876 10877 10877 10878 10879 10880 10881 10881 10881 10882 10882 10883 10884 10885 10883 10883 10883 10883 10882 10882 10882 10881 10880 10879 10878 10877 10876 10876 10876 10876 10875 10874 10873 10871 10870 10868 10866 10865
10686 10707 10725 10727 10725 10727 10730 10733 10737 10739 10742 10750 10756 10761 10764 10769 10773 10777 10784 10785 10787 10795 10800 10802 10809 10813 10814 10817 10821 10827 10834 10838 10838 10840 10844 10846 10850 10853 10853 10855 10858 10861 10863 10865 10866 10867 10868 10870 10872 10872 10873 10874 10876 10877 10877 10877 10878 10878 10879 10879 10881 10881 10880 10880 10880 10879 10879 10879 10878 10877 10876 10875 10874 10873 10872 10872 10872 10871 10871 10870 10869 10867 10865 10864 10862 10860
10690 10713 10721 10718 10720 10722 10723 10728 10732 10734 10739 10747 10753 10758 10761 10764 10768 10773 10779 10779 10781 10789 10794 10797 10804 10808 10810 10813 10817 10821 10826 10831 10833 10835 10839 10842 10845 10847 10847 10850 10853 10855 10856 10859 10861 10861 10864 10866 10866 10867 10868 10870 10871 10871 10872 10873 10874 10875 10875 10876 10877 10877 10876 10876 10875 10875 10875 10875 10875 10873 10872 10871 10870 10868 10868 10868 10867 10867 10866 10866 10864 10863 10861 10859 10857 10855
10690 10705 10705 10706 10711 10713 10717 10722 10725 10729 10736 10744 10749 10753 10757 10759 10763 10767 10772 10773 10774 10782 10789 10793 10801 10806 10806 10807 10811 10814 10819 10826 10829 10830 10834 10837 10838 10840 10842 10845 10847 10848 10850 10853 10855 10856 10858 10860 10860 10862 10864 10865 10866 10866 10867 10869 10871 10872 10872 10872 10873 10872 10872 10871 10871 10871 10871 10871 10870 10869 10868 10867 10866 10865 10864 10864 10863 10862 10862 10860 10859 10858 10856 10854 10852 10851
10681 10689 10692 10695 10700 10704 10710 10715 10720 10725 10731 10738 10744 10748 10751 10754 10756 10759 10765 10767 10768 10776 10784 10789 10798 10803 10800 10802 10806 10808 10814 10820 10822 10825 10829 10830 10832 10834 10837 10839 10840 10841 10844 10846 10849 10850 10852 10854 10855 10857 10858 10859 10860 10861 10863 10865 10866 10867 10867 10868 10868 10867 10867 10867 10866 10866 10866 10866 10865 10864 10863 10862 10861 10860 10860 10859 10859 10858 10856 10855 10854 10853 10851 10849 10847 10846
10668 10678 10682 10685 10693 10698 10702 10708 10714 10718 10723 10731 10738 10742 10744 10746 10748 10752 10758 10761 10763 10770 10779 10785 10793 10798 10796 10797 10802 10803 10808 10813 10815 10821 10824 10823 10826 10829 10829 10832 10833 10834 10837 10839 10843 10845 10846 10848 10850 10851 10852 10854 10855 10857 10859 10861 10861 10861 10862 10862 10863 10863 10862 10862 10862 10862 10862 10861 10860 10859 10859 10858 10857 10856 10855 10854 10854 10853 10851 10850 10848 10847 10846 10844 10842 10840
10662 10670 10674 10681 10690 10694 10698 10706 10710 10713 10717 10723 10729 10733 10736 10738 10740 10745 10751 10756 10760 10765 10774 10781 10784 10791 10794 10793 10795 10798 10803 10808 10810 10814 10817 10817 10819 10821 10821 10824 10826 10827 10830 10833 10837 10840 10841 10842 10844 10845 10846 10849 10850 10852 10854 10854 10855 10856 10856 10857 10857 10857 10857 10857 10857 10857 10857 10857 10855 10854 10854 10853 10851 10851 10850 10850 10850 10848 10847 10845 10842 10841 10840 10838 10836 10834
10663 10666 10673 10682 10686 10690 10699 10704 10704 10705 10707 10713 10720 10725 10729 10730 10732 10739 10744 10750 10756 10761 10770 10774 10774 10784 10793 10788 10787 10794 10799 10803 10804 10805 10809 10812 10811 10812 10814 10817 10819 10821 10825 10828 10832 10835 10836 10836 10839 10840 10841 10844 10845 10846 10847 10847 10849 10850 10850 10851 10852 10852 10852 10852 10852 10852 10852 10852 10851 10849 10848 10847 10846 10845 10845 10845 10845 10843 10842 10840 10837 10835 10834 10832 10830 10828
10652 10659 10668 10670 10671 10682 10692 10692 10693 10695 10698 10706 10712 10716 10719 10719 10723 10731 10738 10745 10751 10756 10764 10767 10766 10777 10789 10784 10781 10789 10795 10796 10797 10797 10800 10805 10805 10805 10808 10811 10813 10816 10819 10823 10826 10830 10831 10832 10833 10836 10837 10838 10838 10839 10840 10841 10843 10844 10844 10845 10846 10846 10846 10847 10847 10847 10846 10846 10846 10844 10842 10841 10840 10839 10839 10840 10839 10837 10836 10835 10832 10830 10828 10826 10824 10822
10636 10645 10648 10648 10656 10671 10676 10675 10679 10682 10686 10694 10699 10705 10709 10712 10718 10726 10733 10737 10742 10751 10759 10762 10762 10770 10783 10784 10778 10782 10787 10786 10788 10790 10792 10795 10799 10800 10803 10806 10807 10810 10813 10817 10820 10823 10826 10827 10828 10830 10831 10831 10831 10832 10834 10835 10836 10838 10839 10839 10840 10840 10841 10841 10841 10841 10840 10840 10840 10839 10837 10835 10834 10833 10833 10833 10832 10831 10830 10829 10827 10825 10822 10820 10817 10815
10626 10628 10630 10637 10649 10657 10659 10662 10667 10669 10675 10683 10689 10698 10704 10707 10714 10719 10725 10730 10738 10750 10757 10758 10757 10762 10777 10784 10775 10771 10774 10776 10780 10783 10784 10788 10792 10795 10797 10800 10801 10803 10807 10811 10814 10816 10819 10822 10823 10823 10824 10825 10826 10827 10827 10828 10829 10831 10832 10833 10833 10834 10834 10834 10834 10835 10835 10834 10833 10832 10832 10831 10829 10827 10827 10826 10826 10825 10824 10822 10821 10820 10817 10814 10810 10808
10616 10621 10628 10635 10639 10644 10649 10654 10658 10664 10673 10680 10687 10696 10701 10705 10710 10714 10720 10728 10739 10748 10751 10754 10753 10755 10770 10778 10770 10761 10761 10769 10774 10774 10777 10782 10786 10789 10791 10793 10795 10798 10801 10804 10807 10810 10812 10815 10817 10817 10818 10819 10821 10821 10820 10821 10822 10824 10825 10826 10826 10826 10827 10828 10828 10828 10828 10828 10826 10824 10824 10825 10823 10822 10820 10819 10819 10818 10817 10816 10814 10812 10811 10808 10804 10801
10610 10616 10620 10625 10630 10636 10641 10646 10654 10666 10678 10685 10691 10697 10700 10703 10707 10711 10718 10726 10735 10741 10744 10747 10746 10750 10762 10767 10765 10760 10753 10759 10766 10765 10769 10775 10779 10783 10785 10787 10789 10792 10795 10797 10799 10802 10804 10807 10809 10811 10812 10813 10814 10814 10814 10815 10816 10818 10819 10819 10819 10819 10820 10821 10821 10821 10821 10820 10819 10818 10817 10817 10816 10815 10814 10813 10812 10810 10810 10809 10807 10805 10804 10802 10798 10795
10607 10611 10617 10625 10631 10636 10641 10649 10659 10669 10676 10678 10682 10685 10686 10690 10697 10702 10709 10716 10724 10728 10730 10735 10739 10748 10757 10758 10762 10759 10748 10748 10755 10757 10762 10768 10773 10777 10780 10782 10783 10784 10787 10789 10791 10794 10796 10799 10802 10804 10805 10806 10807 10807 10808 10809 10809 10811 10812 10811 10812 10812 10813 10814 10814 10814 10813 10812 10812 10812 10811 10810 10809 10808 10807 10806 10805 10803 10802 10802 10800 10798 10796 10795 10791 10788
10592 10600 10616 10628 10632 10637 10644 10650 10655 10659 10663 10666 10670 10671 10672 10681 10690 10694 10700 10708 10712 10716 10722 10730 10741 10750 10751 10751 10754 10754 10747 10743 10744 10749 10755 10760 10767 10771 10773 10776 10777 10778 10780 10782 10784 10786 10788 10791 10793 10796 10798 10799 10800 10800 10801 10802 10802 10804 10804 10805 10805 10805 10806 10807 10807 10806 10806 10805 10804 10805 10804 10803 10802 10801 10799 10798 10797 10795 10794 10794 10792 10790 10788 10787 10784 10780
10584 10594 10610 10617 10620 10628 10633 10638 10644 10649 10654 10659 10662 10666 10673 10681 10685 10688 10695 10701 10704 10710 10719 10729 10739 10743 10742 10744 10748 10748 10745 10740 10738 10741 10745 10749 10757 10763 10766 10768 10770 10773 10774 10775 10777 10779 10781 10783 10785 10788 10790 10792 10793 10794 10794 10795 10796 10797 10797 10797 10798 10797 10798 10799 10799 10799 10799 10798 10798 10797 10797 10796 10795 10795 10793 10791 10790 10788 10787 10786 10784 10781 10780 10778 10776 10773
10583 10593 10605 10610 10614 10620 10622 10626 10632 10635 10638 10644 10651 10661 10668 10669 10670 10677 10686 10692 10696 10704 10715 10724 10730 10733 10735 10740 10745 10742 10738 10736 10734 10734 10735 10740 10745 10752 10758 10761 10764 10767 10768 10769 10770 10771 10774 10775 10777 10779 10781 10784 10786 10786 10787 10788 10789 10790 10789 10789 10790 10789 10790 10790 10791 10792 10791 10791 10791 10790 10790 10789 10789 10788 10787 10785 10783 10781 10780 10779 10776 10773 10772 10770 10767 10765
10572 10581 10591 10600 10606 10610 10613 10616 10619 10621 10626 10635 10645 10653 10655 10655 10660 10669 10676 10684 10691 10698 10709 10716 10719 10725 10732 10737 10739 10734 10728 10730 10731 10728 10729 10733 10736 10741 10747 10752 10757 10760 10762 10763 10762 10763 10766 10767 10770 10772 10773 10776 10777 10778 10779 10780 10781 10782 10782 10782 10782 10782 10782 10782 10782 10783 10783 10783 10783 10784 10783 10782 10782 10781 10779 10778 10776 10775 10773 10771 10769 10766 10764 10761 10759 10757
10561 10567 10577 10590 10595 10596 10598 10598 10604 10615 10624 10632 10639 10644 10647 10650 10656 10663 10671 10679 10684 10689 10700 10707 10710 10720 10729 10731 10729 10724 10721 10723 10725 10724 10725 10728 10730 10733 10737 10740 10746 10750 10753 10756 10756 10757 10759 10760 10763 10764 10766 10768 10769 10770 10771 10772 10773 10774 10774 10775 10774 10774 10774 10774 10774 10774 10774 10774 10774 10775 10775 10774 10774 10773 10772 10770 10769 10767 10765 10763 10761 10759 10756 10754 10751 10748
10549 10555 10567 10579 10582 10581 10583 10587 10600 10615 10621 10627 10633 10639 10645 10649 10654 10662 10668 10673 10677 10684 10695 10701 10707 10718 10723 10721 10719 10715 10713 10715 10718 10720 10721 10721 10723 10726 10728 10730 10734 10738 10742 10746 10749 10752 10754 10755 10756 10756 10758 10759 10760 10762 10763 10764 10765 10766 10767 10767 10767 10767 10767 10767 10767 10767 10767 10766 10765 10765 10764 10764 10765 10764 10763 10762 10760 10759 10757 10755 10753 10751 10749 10747 10744 10740
10536 10545 10557 10566 10570 10574 10580 10588 10598 10606 10611 10617 10622 10629 10636 10639 10643 10649 10654 10663 10671 10678 10686 10691 10699 10710 10711 10709 10710 10707 10705 10707 10712 10715 10716 10716 10717 10719 10720 10722 10725 10727 10731 10735 10740 10744 10746 10748 10749 10749 10750 10751 10752 10754 10755 10756 10757 10758 10759 10760 10761 10761 10761 10760 10760 10760 10760 10758 10756 10755 10754 10753 10754 10754 10754 10753 10751 10750 10748 10747 10745 10743 10741 10739 10735 10732
10529 10537 10546 10554 10562 10570 10576 10580 10585 10593 10603 10606 10606 10614 10620 10622 10628 10636 10645 10656 10660 10663 10671 10675 10684 10698 10700 10698 10703 10702 10698 10701 10707 10710 10710 10710 10711 10711 10712 10715 10717 10720 10724 10727 10731 10734 10736 10738 10740 10742 10743 10744 10745 10746 10747 10748 10750 10750 10751 10752 10753 10753 10753 10753 10753 10752 10751 10749 10748 10747 10745 10743 10743 10742 10743 10742 10741 10740 10739 10738 10736 10734 10732 10730 10726 10723
10518 10525 10533 10540 10551 10560 10565 10569 10574 10582 10589 10589 10594 10606 10613 10619 10629 10635 10640 10645 10647 10654 10661 10662 10674 10694 10696 10692 10699 10701 10694 10694 10699 10701 10702 10703 10704 10705 10706 10708 10710 10713 10716 10720 10722 10724 10726 10728 10730 10733 10735 10736 10737 10738 10739 10740 10741 10742 10743 10743 10744 10744 10743 10743 10743 10743 10742 10740 10739 10738 10736 10734 10733 10732 10732 10731 10730 10730 10729 10728 10726 10724 10722 10720 10716 10713
10510 10515 10522 10530 10539 10546 10551 10556 10561 10569 10579 10587 10597 10606 10611 10618 10623 10625 10629 10632 10637 10649 10653 10652 10671 10691 10689 10687 10697 10697 10688 10688 10691 10690 10692 10695 10695 10697 10699 10701 10704 10706 10709 10711 10713 10714 10717 10719 10722 10724 10726 10728 10729 10731 10732 10733 10733 10734 10734 10733 10733 10733 10733 10733 10732 10732 10731 10730 10730 10728 10727 10726 10724 10723 10722 10721 10720 10719 10718 10717 10716 10714 10712 10709 10706 10703
10501 10505 10518 10527 10534 10542 10551 10560 10570 10580 10590 10595 10599 10602 10606 10612 10614 10617 10621 10621 10629 10646 10646 10646 10665 10680 10680 10685 10693 10690 10682 10681 10681 10677 10680 10684 10685 10688 10692 10696 10698 10699 10700 10702 10704 10706 10709 10712 10714 10716 10718 10719 10721 10722 10723 10723 10724 10724 10724 10723 10723 10722 10722 10722 10721 10721 10720 10720 10719 10719 10718 10717 10715 10714 10713 10712 10711 10709 10708 10707 10706 10704 10702 10699 10696 10694
10489 10497 10511 10520 10530 10543 10555 10565 10573 10579 10582 10584 10589 10594 10599 10602 10603 10607 10609 10612 10629 10642 10635 10640 10659 10669 10674 10682 10684 10679 10673 10671 10670 10666 10667 10673 10676 10680 10685 10687 10690 10691 10692 10695 10697 10700 10703 10705 10707 10709 10710 10711 10711 10712 10712 10712 10713 10713 10713 10713 10712 10712 10711 10711 10711 10711 10710 10710 10709 10709 10708 10708 10707 10706 10704 10703 10701 10699 10698 10697 10695 10694 10692 10689 10687 10684
10483 10490 10501 10511 10522 10532 10539 10545 10550 10553 10557 10565 10572 10575 10580 10584 10587 10591 10597 10609 10624 10623 10619 10637 10652 10656 10669 10673 10667 10666 10664 10661 10661 10659 10661 10667 10670 10672 10674 10676 10680 10684 10687 10691 10693 10695 10697 10698 10700 10701 10701 10701 10701 10700 10701 10701 10702 10702 10702 10702 10701 10701 10701 10701 10701 10700 10700 10699 10698 10698 10698 10698 10697 10696 10694 10693 10691 10689 10688 10686 10685 10683 10681 10679 10676 10673
10476 10483 10496 10506 10512 10519 10524 10530 10535 10540 10546 10552 10555 10558 10563 10567 10568 10575 10586 10599 10603 10597 10608 10631 10634 10640 10661 10659 10647 10655 10659 10655 10659 10660 10658 10659 10660 10661 10663 10666 10672 10677 10682 10686 10688 10689 10691 10691 10691 10691 10690 10690 10690 10690 10691 10691 10692 10692 10691 10692 10691 10691 10691 10690 10690 10689 10689 10688 10687 10687 10686 10686 10685 10685 10683 10682 10680 10679 10677 10675 10674 10672 10670 10668 10666 10663
10470 10479 10489 10494 10499 10506 10512 10518 10526 10533 10538 10543 10547 10552 10555 10557 10560 10568 10576 10584 10585 10585 10605 10625 10624 10636 10656 10646 10637 10650 10655 10652 10659 10660 10652 10648 10647 10649 10652 10658 10666 10672 10676 10679 10680 10680 10681 10681 10682 10682 10681 10682 10681 10681 10681 10680 10681 10680 10680 10680 10681 10681 10681 10680 10679 10678 10678 10677 10676 10675 10675 10673 10673 10672 10671 10670 10668 10667 10665 10664 10662 10660 10659 10657 10654 10652
10465 10473 10480 10486 10490 10492 10497 10509 10518 10523 10529 10534 10539 10543 10546 10550 10554 10561 10571 10582 10585 10592 10611 10620 10619 10634 10648 10637 10632 10643 10644 10645 10653 10652 10643 10638 10636 10637 10644 10654 10662 10665 10667 10669 10669 10669 10671 10672 10673 10673 10673 10673 10672 10671 10671 10670 10670 10670 10669 10669 10670 10669 10670 10669 10668 10668 10667 10666 10666 10665 10664 10662 10661 10660 10659 10658 10656 10654 10653 10651 10649 10648 10646 10645 10643 10640
10461 10465 10472 10477 10476 10479 10491 10501 10508 10514 10518 10520 10524 10531 10537 10543 10552 10562 10575 10585 10587 10593 10602 10603 10610 10632 10638 10623 10621 10628 10628 10632 10641 10643 10639 10633 10626 10629 10641 10652 10655 10655 10657 10658 10659 10661 10662 10663 10663 10663 10663 10664 10663 10662 10661 10661 10661 10660 10659 10659 10658 10657 10657 10656 10655 10655 10654 10654 10654 10653 10652 10651 10650 10648 10647 10645 10643 10641 10639 10637 10636 10634 10632 10631 10629 10627
10452 10456 10463 10466 10469 10478 10486 10490 10498 10502 10498 10501 10517 10533 10539 10547 10557 10564 10571 10576 10577 10581 10586 10591 10609 10626 10618 10603 10607 10616 10620 10626 10634 10638 10636 10629 10622 10627 10640 10645 10645 10646 10648 10648 10649 10651 10652 10652 10652 10652 10653 10654 10654 10653 10652 10652 10652 10651 10650 10649 10647 10646 10645 10644 10643 10642 10641 10640 10640 10640 10639 10638 10637 10635 10634 10632 10630 10628 10626 10624 10622 10621 10619 10617 10615 10613
10444 10449 10456 10460 10467 10474 10476 10482 10487 10481 10481 10503 10529 10537 10538 10544 10548 10549 10555 10563 10565 10566 10573 10587 10603 10607 10599 10597 10604 10610 10616 10622 10625 10627 10628 10625 10624 10629 10634 10634 10634 10636 10637 10637 10639 10640 10640 10641 10641 10642 10643 10643 10643 10643 10643 10643 10643 10642 10641 10639 10637 10635 10634 10633 10632 10630 10629 10628 10627 10627 10626 10625 10624 10622 10620 10619 10617 10615 10613 10611 10609 10608 10606 10604 10601 10599
10437 10443 10450 10455 10461 10465 10469 10472 10467 10465 10489 10518 10526 10522 10524 10528 10529 10533 10544 10552 10555 10561 10572 10585 10595 10595 10592 10595 10598 10598 10605 10611 10614 10618 10621 10621 10622 10622 10621 10621 10623 10626 10627 10627 10628 10629 10630 10631 10631 10631 10632 10632 10633 10634 10633 10634 10633 10631 10630 10628 10625 10623 10622 10621 10620 10618 10617 10616 10615 10615 10614 10612 10611 10609 10607 10606 10604 10602 10601 10599 10597 10595 10593 10591 10589 10586
10426 10432 10440 10445 10449 10454 10457 10455 10455 10470 10496 10508 10504 10504 10510 10514 10520 10532 10545 10555 10561 10565 10570 10576 10584 10585 10581 10584 10588 10589 10594 10599 10605 10612 10614 10613 10610 10609 10609 10611 10613 10616 10618 10617 10617 10619 10620 10620 10620 10620 10621 10622 10623 10623 10623 10622 10621 10619 10617 10615 10613 10611 10610 10609 10608 10606 10605 10605 10604 10603 10602 10600 10598 10596 10595 10593 10591 10590 10588 10586 10584 10582 10580 10578 10575 10573
10418 10423 10428 10429 10434 10441 10445 10449 10459 10470 10479 10485 10492 10500 10505 10513 10524 10531 10537 10545 10547 10544 10548 10558 10568 10569 10567 10572 10578 10578 10580 10587 10597 10605 10606 10601 10596 10595 10598 10602 10604 10607 10609 10607 10607 10609 10609 10608 10609 10610 10610 10611 10611 10611 10610 10609 10608 10606 10604 10602 10601 10600 10599 10598 10597 10596 10595 10594 10592 10591 10589 10587 10586 10584 10582 10581 10579 10577 10575 10573 10570 10567 10565 10563 10560 10558
10414 10417 10419 10420 10425 10431 10435 10443 10450 10452 10464 10483 10497 10502 10505 10511 10514 10510 10511 10522 10529 10532 10541 10552 10558 10559 10559 10564 10569 10567 10569 10580 10594 10601 10595 10583 10579 10582 10588 10592 10595 10598 10599 10597 10597 10599 10599 10599 10599 10599 10599 10599 10599 10597 10596 10596 10595 10594 10591 10589 10589 10588 10587 10587 10586 10585 10585 10582 10580 10578 10576 10574 10573 10571 10569 10567 10566 10564 10561 10558 10556 10552 10550 10547 10545 10542
10408 10410 10412 10414 10418 10421 10426 10433 10437 10445 10469 10488 10491 10493 10495 10496 10495 10489 10490 10511 10532 10536 10538 10545 10549 10551 10553 10556 10557 10555 10560 10577 10592 10590 10573 10562 10564 10574 10581 10584 10586 10588 10588 10587 10588 10590 10591 10590 10589 10589 10588 10587 10586 10585 10584 10583 10582 10581 10578 10576 10576 10575 10575 10574 10573 10572 10571 10569 10567 10565 10563 10561 10560 10557 10554 10552 10550 10549 10546 10543 10540 10537 10534 10531 10529 10527
10400 10402 10404 10405 10410 10415 10421 10426 10433 10448 10471 10479 10476 10478 10482 10483 10480 10470 10475 10510 10534 10527 10524 10535 10539 10538 10541 10542 10542 10545 10556 10572 10578 10567 10554 10551 10557 10566 10574 10576 10577 10577 10578 10579 10580 10580 10580 10579 10579 10578 10577 10575 10573 10571 10570 10569 10568 10567 10565 10563 10561 10562 10562 10561 10560 10558 10556 10554 10552 10549 10547 10546 10543 10540 10538 10536 10534 10532 10529 10526 10523 10521 10518 10515 10512 10510
10392 10394 10398 10401 10406 10412 10419 10425 10434 10449 10465 10468 10467 10469 10470 10468 10465 10462 10480 10514 10523 10510 10514 10527 10527 10526 10530 10529 10531 10540 10551 10557 10554 10549 10547 10548 10551 10556 10563 10566 10567 10569 10571 10571 10571 10570 10570 10569 10568 10566 10565 10563 10561 10558 10556 10555 10553 10552 10552 10550 10547 10547 10547 10546 10545 10543 10541 10538 10535 10532 10530 10528 10525 10523 10521 10519 10518 10516 10514 10511 10508 10505 10502 10500 10496 10494
10383 10388 10392 10396 10401 10409 10416 10421 10428 10443 10456 10460 10458 10458 10457 10458 10466 10479 10495 10505 10501 10497 10506 10514 10515 10517 10519 10518 10523 10532 10537 10536 10537 10540 10542 10543 10545 10549 10553 10555 10558 10559 10561 10562 10561 10561 10560 10559 10557 10556 10554 10551 10548 10546 10543 10541 10539 10538 10537 10536 10534 10532 10531 10530 10529 10527 10524 10522 10518 10515 10513 10510 10508 10507 10505 10503 10502 10500 10498 10495 10492 10490 10487 10484 10482 10479
10378 10382 10386 10391 10397 10403 10407 10411 10422 10439 10451 10452 10449 10452 10457 10464 10476 10487 10489 10487 10488 10489 10491 10496 10503 10506 10505 10508 10515 10519 10520 10521 10525 10532 10536 10537 10540 10542 10544 10546 10548 10549 10550 10551 10550 10550 10549 10549 10548 10546 10542 10538 10535 10532 10529 10527 10525 10523 10522 10522 10520 10518 10517 10515 10513 10510 10508 10505 10502 10499 10497 10495 10492 10490 10489 10487 10485 10483 10482 10479 10477 10475 10473 10470 10468 10465
10367 10374 10380 10385 10389 10394 10401 10413 10429 10443 10447 10445 10448 10455 10461 10465 10471 10474 10475 10478 10481 10479 10480 10487 10491 10489 10492 10498 10502 10505 10509 10511 10516 10523 10528 10530 10533 10534 10536 10538 10540 10541 10541 10540 10538 10539 10539 10538 10537 10534 10530 10525 10521 10517 10514 10512 10511 10509 10509 10508 10507 10505 10503 10501 10498 10496 10493 10490 10488 10485 10482 10480 10477 10475 10473 10471 10470 10468 10466 10464 10462 10460 10458 10456 10454 10452
10365 10372 10375 10379 10383 10391 10404 10417 10427 10434 10437 10438 10444 10451 10454 10456 10459 10463 10466 10469 10469 10469 10473 10477 10476 10475 10480 10484 10487 10493 10498 10500 10506 10514 10518 10521 10524 10526 10528 10531 10532 10532 10530 10528 10527 10528 10527 10525 10524 10521 10516 10512 10507 10504 10502 10500 10498 10497 10496 10495 10493 10492 10490 10487 10485 10483 10480 10478 10475 10472 10469 10467 10464 10462 10460 10458 10456 10454 10453 10451 10449 10447 10445 10443 10441 10439
10364 10366 10367 10373 10379 10388 10399 10410 10416 10422 10428 10431 10435 10442 10446 10447 10451 10454 10456 10457 10458 10460 10463 10464 10465 10467 10468 10470 10475 10481 10485 10490 10498 10504 10507 10510 10512 10515 10519 10522 10522 10521 10519 10516 10516 10515 10513 10512 10511 10507 10503 10499 10495 10493 10490 10488 10487 10486 10484 10483 10481 10479 10477 10475 10472 10470 10468 10466 10463 10461 10459 10456 10454 10451 10449 10447 10445 10443 10441 10439 10437 10435 10433 10432 10430 10427
10355 10356 10360 10368 10375 10384 10397 10408 10413 10418 10423 10426 10429 10434 10438 10441 10444 10448 10450 10450 10449 10449 10449 10452 10456 10458 10458 10461 10465 10469 10474 10483 10489 10492 10495 10498 10500 10503 10508 10509 10509 10508 10506 10503 10502 10501 10501 10500 10499 10495 10491 10487 10484 10482 10480 10478 10477 10476 10474 10473 10471 10468 10466 10464 10461 10459 10457 10455 10453 10451 10449 10447 10445 10443 10441 10438 10436 10434 10432 10430 10428 10425 10423 10421 10419 10417
10347 10348 10353 10363 10373 10384 10395 10402 10405 10409 10416 10421 10424 10427 10431 10434 10438 10440 10441 10441 10439 10438 10438 10440 10444 10448 10452 10455 10457 10461 10467 10473 10477 10480 10482 10483 10486 10490 10493 10494 10494 10492 10489 10489 10489 10489 10488 10488 10487 10484 10480 10476 10473 10472 10470 10469 10468 10466 10465 10463 10461 10459 10457 10454 10452 10450 10448 10446 10444 10442 10440 10438 10436 10434 10432 10430 10428 10426 10423 10421 10419 10416 10414 10412 10410 10407
10334 10336 10344 10355 10364 10374 10384 10393 10398 10405 10412 10417 10420 10421 10422 10425 10429 10430 10432 10433 10431 10427 10425 10427 10432 10439 10445 10449 10452 10456 10460 10464 10466 10467 10466 10467 10472 10476 10478 10478 10478 10476 10476 10477 10478 10476 10475 10476 10476 10474 10471 10467 10464 10463 10461 10460 10459 10457 10455 10453 10451 10449 10448 10445 10444 10442 10440 10438 10436 10434 10432 10430 10428 10426 10424 10422 10420 10417 10415 10413 10410 10408 10406 10403 10401 10398
10325 10333 10340 10345 10353 10367 10382 10390 10395 10401 10406 10410 10412 10413 10414 10416 10420 10422 10423 10422 10417 10413 10413 10418 10425 10433 10439 10443 10446 10449 10452 10455 10456 10455 10455 10458 10462 10465 10465 10464 10463 10463 10464 10465 10464 10464 10463 10463 10464 10464 10462 10459 10455 10454 10453 10452 10450 10449 10447 10445 10443 10441 10438 10437 10435 10433 10432 10431 10429 10427 10425 10423 10421 10419 10417 10414 10412 10409 10407 10405 10402 10399 10397 10394 10392 10389
10328 10335 10336 10340 10352 10368 10377 10380 10383 10390 10396 10398 10400 10403 10405 10405 10406 10407 10406 10404 10402 10404 10407 10413 10419 10427 10433 10436 10438 10441 10444 10445 10445 10446 10448 10451 10454 10455 10454 10452 10451 10452 10453 10452 10453 10453 10452 10452 10452 10452 10452 10451 10449 10446 10445 10444 10442 10441 10439 10437 10435 10433 10431 10429 10427 10426 10424 10423 10421 10419 10418 10415 10413 10411 10409 10407 10404 10402 10399 10397 10394 10391 10388 10385 10382 10379